ECMWFNIL_sfc_dewp_054.txt.gz
Dewpoint
-5 -3 -5 -5 -3 -1 -3 -4 -5 -6 -5 -4 -5 -5 -3 -2 2 -1 -0 -0 0 0 2 1 2 2 3 1 1 2 2 2 3 2 2 3 2 3 5 5 6 8
-5 -6 -2 -5 -6 -5 -6 -7 -6 -6 -6 -6 -5 -4 -3 -1 -3 -1 -2 -2 -1 -1 -0 1 1 2 1 2 2 2 1 1 1 2 1 1 0 1 2 4 5 5
-8 -8 -9 -9 -9 -8 -8 -7 -6 -6 -6 -5 -4 -3 -4 -3 -4 -3 -3 -2 -1 -1 -1 1 1 1 3 3 2 1 1 1 2 1 3 1 0 0 1 1 2 3
-10 -9 -10 -9 -9 -9 -8 -7 -7 -7 -7 -7 -6 -5 -5 -4 -2 -2 -2 1 -1 -1 -1 -0 0 0 1 1 3 2 1 1 1 1 1 3 4 2 2 2 6 5
-10 -10 -9 -9 -9 -8 -8 -9 -9 -8 -7 -7 -6 -5 -2 -2 -2 -2 -1 -0 -0 0 3 1 1 1 1 1 1 1 0 0 -0 -0 0 1 2 4 3 5 6 5
-10 -9 -9 -9 -9 -9 -9 -9 -9 -7 -6 -6 -5 -1 -1 -1 -1 -1 -0 0 1 1 1 4 3 3 4 3 3 2 1 0 -0 -1 -1 -1 -1 0 3 3 4 4
-11 -10 -10 -9 -9 -9 -9 -8 -7 -5 -5 -5 -2 -2 -2 -2 -1 -0 0 1 1 2 2 2 2 3 3 3 4 4 3 2 1 0 0 0 1 0 0 2 3 3
-11 -10 -10 -9 -9 -8 -8 -8 -6 -6 -5 -3 -3 -3 -1 -1 -1 0 1 1 2 2 2 3 3 3 3 4 4 5 4 4 3 3 2 1 1 0 1 3 3 3
-10 -10 -9 -9 -9 -9 -8 -7 -6 -5 -3 -4 -3 -3 -1 -1 0 0 1 1 2 3 3 3 4 4 4 5 7 7 6 6 5 4 3 3 2 2 2 3 3 4
-10 -9 -9 -9 -8 -8 -8 -7 -7 -6 -4 -4 -3 -1 -1 -0 0 0 1 1 2 2 3 3 4 4 5 7 7 7 7 7 7 7 6 6 4 4 4 4 3 3
-9 -9 -9 -9 -9 -9 -9 -8 -6 -5 -4 -2 -1 -1 -1 -0 0 1 1 1 2 2 3 3 4 4 5 5 5 6 6 8 8 8 8 7 6 5 8 5 4 4
-9 -9 -10 -10 -9 -9 -8 -7 -5 -5 -4 -2 -1 -2 -1 -0 0 1 2 1 2 2 3 4 4 4 5 5 5 5 6 8 8 8 8 8 8 7 6 6 5 5
-10 -10 -10 -9 -9 -9 -7 -5 -5 -4 -3 -2 -1 -1 -1 -0 1 0 1 1 2 3 4 4 5 5 5 5 5 6 8 9 9 8 8 8 8 8 7 7 6 6
-10 -9 -9 -9 -8 -6 -5 -5 -4 -3 -2 -2 -1 -1 -0 0 1 0 0 1 2 2 3 4 5 5 5 7 8 8 9 9 10 10 9 9 9 9 8 8 7 7
-10 -9 -9 -8 -7 -6 -5 -4 -3 -3 -3 -2 -1 -0 0 0 0 0 0 1 1 2 3 4 5 5 6 7 8 9 9 10 10 10 11 11 10 10 9 9 8 8
-9 -9 -8 -7 -7 -6 -5 -4 -4 -3 -2 -2 -2 -1 -1 -0 -0 0 1 1 1 2 3 3 4 5 9 14 16 12 12 12 11 11 12 11 11 11 11 10 10 9
-9 -9 -8 -7 -6 -5 -5 -4 -3 -3 -2 -2 -3 -2 -2 -1 -1 -0 0 1 1 2 3 3 4 6 14 17 19 20 18 17 16 15 13 13 12 12 12 11 11 11
-9 -8 -7 -6 -5 -5 -5 -3 -3 -3 -3 -3 -3 -3 -2 -1 -1 -1 -0 0 1 2 3 4 4 11 16 18 20 21 21 19 20 19 18 16 14 13 13 13 12 12
-8 -8 -7 -5 -5 -4 -4 -4 -4 -4 -4 -5 -4 -3 -2 -2 -1 -1 -1 -0 1 2 2 4 4 12 17 19 20 22 23 22 21 21 21 20 18 16 14 14 14 13
-8 -6 -6 -5 -5 -5 -5 -5 -5 -6 -5 -4 -3 -3 -2 -2 -2 -1 -1 -0 1 2 3 3 4 11 17 19 21 22 23 23 22 22 22 22 21 19 17 16 15 14
-8 -6 -6 -6 -6 -6 -6 -6 -6 -6 -5 -4 -4 -3 -3 -3 -2 -1 0 1 1 2 3 3 4 14 18 20 21 23 24 24 23 23 23 23 23 22 21 19 17 16
-7 -7 -7 -7 -6 -7 -7 -7 -6 -6 -6 -5 -4 -3 -2 -1 -1 0 -0 -0 1 2 3 4 5 15 18 20 21 23 24 23 24 24 24 23 23 23 23 21 20 18
-7 -7 -8 -8 -8 -8 -8 -7 -6 -7 -6 -5 -5 -4 -4 -3 -2 -2 -1 -0 0 2 3 4 6 12 18 20 22 24 24 23 23 23 24 24 23 23 23 23 22 21
-7 -7 -9 -9 -8 -9 -8 -7 -7 -7 -6 -5 -5 -5 -5 -3 -3 -2 -1 0 1 2 4 5 7 12 18 21 22 23 23 22 22 22 23 22 23 23 24 24 24 24
-7 -8 -8 -8 -9 -8 -8 -8 -8 -7 -6 -5 -5 -4 -3 -2 -1 -1 -0 1 2 3 8 8 9 12 17 20 21 22 22 21 21 21 22 22 22 23 23 23 23 24
-7 -7 -7 -8 -7 -8 -8 -9 -8 -7 -6 -6 -5 -4 -3 -2 -1 -0 -0 1 2 4 5 7 8 11 14 19 19 20 21 20 20 20 21 21 21 21 22 22 23 23

ECMWFNIL_sfc_dewp_060.txt.gz
Dewpoint
-4 -5 -8 -8 -8 -7 -8 -7 -6 -6 -4 -5 -7 -7 -7 -6 -4 -4 -1 -1 -1 -0 -0 -0 1 1 1 1 2 2 1 1 1 2 2 3 2 2 2 2 3 4
-6 -5 -2 -5 -6 -5 -4 -5 -5 -5 -6 -7 -8 -8 -7 -6 -6 -5 -4 -4 -4 -4 -3 -1 0 1 -0 1 0 1 0 1 1 1 -0 1 1 2 2 2 2 3
-8 -8 -8 -8 -7 -5 -4 -5 -6 -8 -8 -8 -8 -7 -7 -5 -6 -6 -5 -5 -5 -3 -2 -1 -0 -0 1 1 1 1 1 1 2 2 3 2 2 1 1 1 1 1
-8 -9 -10 -10 -9 -8 -8 -9 -10 -9 -8 -8 -8 -6 -5 -7 -6 -6 -6 -2 -2 -1 -2 -2 -1 -0 1 1 2 3 3 3 2 2 2 4 4 3 2 1 3 2
-9 -10 -10 -10 -10 -9 -10 -10 -10 -10 -10 -9 -9 -8 -6 -6 -6 -5 -5 -3 -2 -3 -1 -1 -1 -0 1 1 2 2 3 3 3 2 2 3 3 4 4 5 4 4
-9 -9 -9 -10 -10 -10 -10 -10 -10 -9 -9 -9 -9 -7 -7 -6 -6 -5 -3 -3 -3 -3 -2 -1 -0 -0 1 1 2 2 3 3 3 3 2 2 2 3 4 4 4 4
-9 -10 -10 -10 -10 -10 -10 -9 -8 -6 -8 -8 -6 -5 -5 -5 -5 -4 -4 -3 -3 -1 -1 -1 -1 -0 -0 1 2 3 4 3 3 4 4 4 4 3 3 4 4 4
-10 -10 -10 -10 -10 -9 -9 -8 -7 -6 -6 -5 -6 -6 -5 -6 -5 -5 -3 -3 -3 -2 -2 -1 -1 -1 -0 1 2 3 4 4 4 4 4 4 5 4 4 4 4 3
-10 -11 -10 -10 -10 -10 -8 -8 -7 -7 -5 -6 -6 -6 -5 -5 -4 -3 -3 -2 -2 -1 -1 -1 -1 -0 1 2 3 4 4 4 4 5 5 5 6 6 6 6 5 5
-11 -11 -11 -10 -9 -9 -8 -8 -8 -7 -5 -6 -6 -6 -5 -4 -3 -3 -2 -2 -1 -1 -1 -1 -0 0 1 2 3 3 4 5 5 6 6 6 6 6 6 6 6 6
-10 -10 -10 -9 -10 -9 -9 -8 -7 -7 -7 -6 -6 -5 -4 -4 -3 -2 -2 -1 -1 -1 -1 -1 -1 0 1 1 2 3 4 5 6 7 7 7 8 8 9 7 6 6
-10 -10 -10 -10 -10 -9 -9 -8 -7 -7 -7 -5 -4 -5 -5 -3 -3 -2 -1 -2 -2 -2 -1 -1 -1 -0 0 1 1 2 3 5 6 6 6 7 7 7 7 8 7 7
-10 -10 -10 -10 -9 -9 -8 -6 -7 -7 -7 -6 -5 -5 -4 -3 -2 -2 -0 -1 -1 -1 -1 -1 -0 0 1 2 2 2 5 6 6 6 6 6 7 8 8 8 7 7
-10 -10 -10 -9 -9 -6 -7 -6 -5 -6 -6 -5 -4 -4 -2 -1 -1 -1 -2 -1 -1 -1 -1 -0 1 1 1 2 3 4 5 6 5 5 5 6 6 7 8 8 9 9
-9 -9 -9 -8 -7 -7 -7 -6 -5 -5 -5 -4 -3 -1 -1 -0 -1 -1 -2 -1 -2 -1 -1 -0 1 1 1 1 2 3 4 4 5 5 6 6 7 7 8 9 9 9
-9 -8 -8 -8 -7 -7 -6 -6 -6 -5 -4 -3 -3 -1 -1 -1 -1 -1 -1 -2 -2 -2 -1 -1 -0 0 4 10 10 4 4 4 4 5 5 6 6 7 7 8 9 9
-9 -8 -8 -6 -6 -6 -6 -5 -5 -3 -2 -3 -2 -2 -2 -2 -1 -2 -3 -2 -3 -3 -3 -2 -1 0 9 12 15 16 12 8 6 6 7 8 8 8 8 9 9 10
-8 -7 -6 -6 -5 -6 -6 -5 -4 -3 -2 -1 -2 -2 -1 -1 -2 -3 -3 -3 -3 -3 -3 -2 -2 6 12 14 16 17 17 12 12 11 11 11 10 10 10 11 11 12
-6 -7 -5 -5 -5 -4 -4 -3 -3 -3 -3 -3 -3 -3 -3 -4 -3 -3 -4 -4 -4 -4 -4 -3 -2 7 12 15 16 17 19 17 14 14 13 13 14 14 13 14 14 14
-5 -5 -4 -2 -3 -4 -4 -4 -4 -4 -4 -4 -3 -3 -3 -4 -4 -5 -4 -4 -4 -4 -4 -4 -3 5 12 14 16 18 19 18 15 14 14 15 15 16 16 17 17 17
-5 -4 -3 -3 -3 -4 -4 -4 -5 -5 -4 -4 -4 -3 -4 -6 -6 -6 -5 -5 -5 -5 -4 -5 -4 8 12 14 16 18 19 18 16 16 15 16 17 18 18 19 19 19
-2 -2 -3 -1 -2 -4 -4 -4 -4 -6 -6 -5 -5 -4 -5 -5 -5 -5 -5 -5 -5 -5 -5 -4 -4 10 13 15 17 18 19 16 16 16 17 18 19 19 19 19 20 21
-1 -2 -2 -3 -4 -4 -5 -5 -4 -5 -6 -5 -6 -5 -5 -6 -5 -6 -5 -5 -5 -4 -3 -3 -3 4 12 14 16 18 17 15 16 16 18 18 18 19 21 22 22 22
-0 -1 -2 -3 -3 -5 -5 -5 -5 -5 -5 -5 -6 -6 -6 -6 -6 -6 -6 -5 -5 -5 -4 -4 -4 2 11 14 16 18 17 15 16 16 17 18 19 19 20 21 20 20
1 -1 -2 -2 -3 -3 -5 -5 -5 -5 -5 -5 -5 -6 -6 -6 -6 -7 -6 -6 -6 -5 -0 -1 -1 3 11 14 16 18 17 16 16 17 17 18 18 17 17 18 17 18
1 -1 0 -2 -3 -4 -4 -5 -5 -5 -6 -6 -6 -6 -7 -7 -7 -7 -7 -6 -5 -4 -3 -2 -1 -0 3 13 15 17 19 16 17 18 17 18 17 17 17 18 18 16

ECMWFNIL_sfc_dewp_063.txt.gz
Dewpoint
-4 -5 -5 -4 -5 -6 -7 -8 -9 -8 -8 -8 -7 -7 -5 -4 -4 -6 -6 -5 -5 -5 -3 -2 -2 -2 -2 -1 0 1 1 1 0 0 2 2 1 1 0 0 1 1
-4 -3 -1 -4 -4 -3 -5 -7 -8 -8 -8 -8 -8 -7 -6 -5 -6 -6 -7 -7 -6 -5 -4 -3 -3 -3 -3 -2 -2 -2 -2 -1 -1 0 -0 -0 -0 0 0 2 1 1
-5 -4 -4 -3 -5 -7 -7 -7 -7 -8 -8 -7 -7 -7 -6 -5 -7 -7 -7 -7 -6 -6 -5 -3 -3 -4 0 -1 -2 -2 -1 -0 1 1 2 1 1 1 0 0 0 1
-5 -6 -5 -5 -5 -6 -7 -7 -7 -6 -5 -6 -6 -6 -6 -7 -7 -8 -8 -4 -6 -6 -6 -6 -5 -3 -1 -2 -1 -0 -0 0 0 1 1 2 2 2 1 1 2 1
-6 -7 -7 -7 -7 -7 -7 -7 -7 -6 -5 -6 -6 -6 -6 -7 -7 -7 -7 -7 -7 -6 -2 -4 -3 -3 -3 -3 -2 -1 -0 0 1 1 1 2 2 4 3 4 5 5
-6 -6 -6 -8 -8 -9 -9 -9 -9 -8 -8 -8 -8 -8 -8 -7 -7 -7 -7 -7 -7 -6 -5 -2 -2 -3 -2 -2 -1 -1 -1 -0 1 1 2 2 2 2 4 5 5 5
-6 -7 -8 -8 -8 -9 -9 -9 -9 -7 -9 -9 -8 -7 -8 -8 -8 -8 -8 -7 -7 -5 -4 -3 -3 -3 -3 -2 -1 -1 -1 -0 1 2 2 2 3 3 3 5 5 5
-7 -8 -8 -8 -8 -9 -8 -9 -8 -7 -7 -8 -8 -8 -7 -7 -8 -7 -6 -6 -5 -5 -4 -4 -3 -3 -2 -2 -1 -1 -1 1 2 3 3 3 4 4 4 5 5 5
-7 -8 -9 -8 -9 -9 -8 -9 -8 -8 -7 -7 -7 -7 -6 -6 -6 -6 -5 -5 -5 -5 -5 -4 -3 -3 -2 -0 1 0 -1 -1 1 3 4 4 4 5 5 6 6 6
-8 -8 -8 -8 -8 -8 -9 -8 -8 -8 -6 -7 -6 -6 -6 -6 -6 -6 -6 -6 -5 -5 -3 -3 -2 -1 -1 1 0 0 1 2 1 3 5 6 6 7 7 7 7 7
-8 -8 -8 -8 -9 -9 -9 -9 -7 -8 -7 -6 -6 -6 -5 -6 -6 -6 -6 -5 -5 -4 -3 -3 -2 -2 -1 -1 -1 -1 -0 1 2 4 5 5 6 6 8 7 7 7
-8 -9 -9 -9 -9 -9 -9 -8 -8 -8 -8 -6 -4 -6 -6 -5 -6 -6 -5 -5 -5 -4 -3 -3 -2 -2 -2 -2 -2 -1 -0 2 4 5 5 6 7 7 7 7 8 7
-8 -9 -9 -9 -8 -9 -8 -7 -7 -7 -7 -6 -5 -4 -5 -5 -5 -5 -4 -3 -3 -2 -2 -1 -1 -1 -1 -2 -2 -1 2 3 3 4 5 6 7 7 8 8 9 9
-8 -8 -9 -8 -8 -4 -7 -6 -5 -6 -6 -6 -4 -4 -3 -1 -1 -3 -4 -3 -2 -2 -1 -0 1 -0 -2 -1 1 2 3 3 3 4 5 6 6 7 7 7 8 8
-8 -8 -8 -8 -6 -7 -6 -5 -4 -5 -5 -5 -3 -1 -1 -1 -1 -3 -2 -0 -2 -1 -0 1 0 0 0 -0 1 2 3 3 3 4 5 5 6 6 7 7 7 8
-7 -7 -7 -7 -6 -6 -5 -5 -5 -4 -4 -3 -2 -1 -0 -0 -0 -1 1 0 -1 0 0 -0 -0 -0 2 8 9 3 2 2 3 3 4 5 5 5 6 7 7 8
-7 -6 -6 -5 -5 -4 -4 -3 -4 -1 -0 -2 -2 -1 0 1 -0 1 1 0 -0 -0 -0 -1 -1 -0 7 11 13 15 9 3 2 3 3 4 4 5 5 6 7 8
-5 -4 -4 -3 -3 -3 -3 -1 -1 -0 -1 -0 -1 -1 -0 1 1 1 0 0 -0 -0 -1 -1 -1 4 10 12 14 15 15 9 6 5 5 5 6 6 6 7 8 9
-3 -2 -1 -1 -2 0 1 2 1 0 0 0 0 0 1 1 1 0 -0 -1 -1 -1 -2 -2 -2 5 11 13 15 16 17 15 11 9 7 7 8 8 8 9 9 10
-0 0 -1 3 1 2 2 2 2 1 1 1 0 0 1 1 0 -1 -1 -1 -2 -2 -3 -2 -2 4 11 13 15 16 17 16 12 12 11 11 11 11 11 12 11 12
0 -0 -0 1 2 2 2 2 1 1 1 1 0 -0 0 -1 -1 -1 -2 -2 -2 -3 -3 -3 -3 7 11 13 15 16 17 16 12 12 12 12 12 12 13 13 14 15
2 2 1 2 2 1 1 1 1 1 0 0 -1 -1 -1 -1 -2 -2 -2 -3 -3 -3 -4 -4 -4 9 12 14 15 16 16 12 11 12 12 12 12 13 13 13 14 14
3 2 1 1 1 1 1 1 1 1 -1 -0 -1 -2 -2 -3 -3 -3 -3 -4 -4 -4 -4 -4 -4 3 11 13 14 16 15 11 12 12 12 12 13 13 14 15 16 17
5 3 2 2 1 1 1 1 1 0 -1 -1 -2 -3 -3 -3 -3 -4 -4 -4 -4 -5 -4 -5 -4 1 9 12 14 15 14 11 11 10 11 12 12 14 15 16 18 19
5 4 3 2 2 2 1 1 0 -0 -0 -1 -3 -3 -3 -3 -3 -4 -5 -5 -5 -5 -2 -3 -4 0 8 11 14 15 13 11 11 10 10 11 12 13 15 16 18 20
5 4 3 3 3 2 2 1 1 -0 -1 -2 -3 -3 -4 -5 -5 -5 -5 -5 -5 -5 -5 -4 -4 -3 0 9 12 14 16 12 11 11 11 12 13 14 15 18 18 18

ECMWFNIL_sfc_dewp_069.txt.gz
Dewpoint
12 11 10 9 7 7 5 4 3 1 -3 -5 -6 -7 -7 -6 -3 -4 -1 -2 -2 -2 0 2 3 3 2 2 3 3 4 4 4 5 5 6 6 7 6 7 8 6
11 10 12 11 9 8 6 4 3 1 -1 -4 -7 -8 -8 -7 -7 -6 -5 -4 -2 -3 -1 1 1 2 2 2 2 2 1 1 1 5 2 6 4 6 6 8 8 8
11 12 9 7 6 8 7 5 2 0 -1 -4 -6 -7 -8 -7 -7 -6 -6 -6 -5 -2 -1 1 1 0 4 3 1 1 1 0 1 2 2 2 3 4 5 7 7 8
13 9 10 11 7 3 3 4 3 2 -1 -3 -6 -7 -7 -8 -7 -7 -7 -1 -6 -4 -1 -1 -1 -1 -0 -0 2 1 1 0 0 0 2 3 3 4 4 4 6 6
13 13 12 8 7 8 6 2 1 1 -0 -3 -5 -7 -6 -7 -6 -7 -6 -5 -4 -4 -1 -1 -1 -1 -1 -1 -1 0 0 0 0 1 2 3 3 3 5 4 8 9
11 12 13 11 9 4 4 5 3 0 0 -2 -4 -4 -6 -6 -5 -5 -5 -5 -3 -3 -3 -1 -1 -1 -1 -2 -1 -1 -0 -1 -0 1 1 1 2 3 4 7 8 9
13 13 14 15 10 9 4 2 3 4 0 -1 -1 -2 -5 -5 -5 -5 -5 -4 -3 -2 -3 -2 -2 -1 -2 -2 -1 -1 -0 -0 -0 0 1 1 2 3 4 8 9 8
15 14 13 15 15 8 7 5 2 3 2 1 -1 -4 -3 -4 -4 -4 -3 -3 -3 -3 -3 -2 -1 -2 -2 -2 -1 -1 -1 -1 0 2 1 1 2 2 4 7 9 9
16 16 13 13 13 12 6 6 4 2 1 0 -1 -2 -2 -2 -2 -1 -0 -1 -1 -1 -2 -1 -1 -1 -1 1 1 1 -1 -1 0 1 1 2 3 3 4 8 9 9
16 16 15 13 13 11 7 4 5 2 3 -0 -0 -1 -1 -0 -0 -0 1 0 1 0 1 -1 -0 1 1 1 2 1 1 3 2 2 2 5 5 7 7 8 8 9
16 16 16 15 13 12 11 6 6 5 1 0 0 0 1 0 1 1 1 2 1 2 1 0 1 0 1 1 1 1 2 5 7 7 7 6 7 6 8 8 9 9
16 16 16 15 15 14 12 10 8 7 4 1 3 1 1 2 1 2 2 2 2 2 2 1 1 1 1 1 1 1 1 4 7 7 6 7 7 7 7 9 10 10
16 17 18 17 17 16 13 11 9 8 6 2 2 3 2 2 2 3 3 3 3 4 4 3 3 3 3 2 2 2 6 8 6 6 6 6 7 6 7 8 10 11
17 17 18 18 18 17 14 12 10 7 7 4 4 4 6 7 7 4 5 4 5 5 5 6 7 5 3 3 6 6 7 8 6 7 6 6 6 7 7 8 9 11
17 18 19 19 20 18 16 13 11 9 7 8 8 8 8 8 8 7 7 8 8 7 7 7 7 6 6 6 7 8 9 7 6 6 6 6 6 6 7 8 9 10
18 22 23 22 19 16 15 14 12 10 11 8 7 8 10 9 9 8 9 9 7 8 8 7 7 6 7 11 11 7 8 7 6 6 6 6 6 6 7 8 8 10
21 22 22 20 19 18 16 16 14 13 11 10 9 9 9 10 10 9 9 9 9 9 9 8 7 7 11 14 15 15 10 8 7 6 6 6 6 6 6 6 8 9
22 21 21 20 19 18 17 17 16 14 11 11 10 9 9 10 9 10 9 9 9 9 9 8 7 10 14 15 16 16 15 8 7 6 5 5 6 6 5 6 7 7
15 16 17 18 19 20 19 17 16 13 12 11 10 10 10 10 10 9 9 9 9 9 8 8 8 12 15 16 16 17 17 14 6 6 5 4 5 5 6 6 6 7
14 12 12 15 17 17 16 16 14 13 12 11 10 11 10 10 9 9 9 9 9 8 8 8 7 10 15 16 16 17 17 16 11 7 6 6 6 6 6 6 6 6
9 10 10 10 11 12 14 14 14 13 12 12 10 10 9 9 8 8 8 9 8 8 7 7 7 12 15 15 16 17 16 15 13 12 9 8 8 7 7 7 7 6
8 8 9 10 10 11 12 13 13 12 11 11 11 10 9 9 8 8 8 8 8 8 7 6 6 14 15 15 16 16 16 12 11 12 11 10 9 9 9 8 8 8
7 6 6 7 8 7 9 9 10 9 9 11 11 10 8 8 8 7 7 7 7 7 6 6 5 10 15 15 15 16 14 10 10 10 10 10 9 10 10 9 10 9
3 3 3 3 4 5 6 6 6 8 9 10 11 9 8 8 7 6 7 7 6 6 6 5 5 8 13 14 15 16 14 10 9 8 8 7 8 8 9 10 11 12
0 1 2 2 3 4 5 6 7 8 9 11 11 10 9 8 7 6 6 6 6 6 7 5 4 6 11 14 15 15 12 10 9 7 6 6 6 7 8 8 9 11
-1 -0 0 1 2 3 5 5 7 7 9 9 10 9 8 7 6 6 6 5 5 5 5 5 4 3 5 13 14 14 14 9 8 7 6 5 6 6 6 7 8 9